Location: ?p Thanh B�nh
(16.5833°N, 107.5333°E)
Time: 10:14:43
(UTC+00:00)

CZ-2C R/B - Pass Details

Date: 29 October 2020
Orbit: 391 x 587 km, 35.0° (Epoch: 23 November)

Event Time Altitude Azimuth Distance (km) Brightness Sun altitude
Exits shadow 21:51:22 23° 247° (WSW) 888 1.9 -13.8°
Maximum altitude 21:52:20 27° 216° (SW) 791 1.9 -13.6°
Drops below altitude 10° 21:55:06 10° 156° (SSE) 1,427 3.9 -12.9°
Sets 21:57:25 0° 143° (SE) 2,304 5.3 -12.4°
